Regional Weather Roundup
Issued by NWS

Home | Current Version | Previous Version | Text Only | Print | Product List | Glossary Off
Versions: 1 2 3 4 5 6 7 8 9 10 11 12 13 14 15 16 17 18 19 20 21 22 23 24 25 26 27 28 29 30 31 32 33 34 35 36 37 38 39 40 41 42 43 44 45 46 47 48 49 50

000
ASUS43 KBIS 241802
RWRND

NORTH DAKOTA REGIONAL WEATHER ROUNDUP
NATIONAL WEATHER SERVICE BISMARCK ND
100 PM CDT WED MAY 24 2017

NOTE: "FAIR" INDICATES FEW OR NO CLOUDS BELOW 12,000 FEET WITH NO
SIGNIFICANT WEATHER AND/OR OBSTRUCTIONS TO VISIBILITY.


NDZ001>003-009>011-017-241900-
NORTHWEST NORTH DAKOTA

CITY           SKY/WX    TMP DP  RH WIND       PRES   REMARKS
WILLISTON      FAIR      71  37  28 SE25G37   29.42F
6HR MIN TEMP:  53; 6HR MAX TEMP:  71;

MINOT          FAIR      68  35  29 SE21G31   29.54F
MINOT AFB      SUNNY     67  36  31 SE30G38   29.52F
$$

NDZ018>021-031>035-040>046-241900-
SOUTHWEST NORTH DAKOTA

CITY           SKY/WX    TMP DP  RH WIND       PRES   REMARKS
BISMARCK       FAIR      65  40  39 S21G31    29.61F
6HR MIN TEMP:  37; 6HR MAX TEMP:  65;

DICKINSON      FAIR      66  32  28 S32G39    29.48F
GARRISON         N/A     64  37  36 S23       29.56F
6HR MIN TEMP:  46; 6HR MAX TEMP:  65;

HETTINGER ARPT SUNNY     66  36  32 S22G30    29.56F
$$

NDZ004>008-012>016-024-026-027-054-241900-
NORTHEAST NORTH DAKOTA

CITY           SKY/WX    TMP DP  RH WIND       PRES   REMARKS
GRAND FORKS    MOSUNNY   67  41  38 SE20G30   29.71F
GRND FRKS AFB  MOSUNNY   65  41  42 S14G25    29.71F
DEVILS LAKE    FAIR      61  42  49 SE21G30   29.67F
$$

NDZ022-023-025-028>030-036>039-047>053-241900-
SOUTHEAST NORTH DAKOTA

CITY           SKY/WX    TMP DP  RH WIND       PRES   REMARKS
FARGO          PTSUNNY   63  43  48 S14G20    29.72F
6HR MIN TEMP:  43; 6HR MAX TEMP:  64;

JAMESTOWN      PTSUNNY   59  42  53 SE17      29.69F
$$




USA.gov is the U.S. government's official web portal to all federal, state and local government web resources and services.